Probability
73 72 69 64 63 66 68 65 61 58 55 51 47 45 47 47 44 38 33 28 24 21 22 23 20 17 15 13 11 7 3 1 0 0 0 0 0 0 0 0 0 0 0
70 70 67 63 63 65 65 62 59 55 51 47 43 41 42 43 41 36 30 24 20 19 20 22 20 18 16 13 11 8 5 2 0 0 0 0 0 0 0 0 0 0 0
65 66 64 61 62 62 62 59 54 49 44 40 37 34 35 36 35 33 28 23 19 18 21 22 20 17 15 12 11 9 6 4 2 2 1 0 0 0 0 0 0 0 0
57 60 61 60 60 59 56 52 47 42 36 33 32 29 29 31 33 33 31 26 21 20 22 24 22 18 14 11 10 9 7 6 5 3 2 1 1 0 0 0 0 0 0
51 55 58 56 55 52 47 43 39 34 31 29 27 26 26 28 31 33 33 28 23 21 22 24 23 19 14 12 10 9 9 7 6 4 3 3 2 1 0 0 0 0 0
48 52 54 52 49 43 39 37 35 31 28 26 22 21 23 24 26 28 29 27 25 20 17 19 22 20 17 14 11 10 9 8 6 4 3 3 2 1 1 1 0 0 0
41 46 50 47 41 35 32 33 34 32 28 22 16 14 16 19 21 23 25 24 21 16 14 18 21 21 20 17 12 10 9 8 6 4 3 3 2 1 2 2 1 1 0
31 38 44 40 32 26 24 28 31 30 26 19 12 9 11 16 19 21 21 20 16 14 17 22 23 22 20 16 13 11 10 8 6 4 3 3 3 3 3 3 3 2 1
23 30 35 31 25 21 20 23 26 27 24 19 13 10 12 16 19 20 19 18 16 16 22 25 23 21 19 16 14 11 9 9 6 4 3 3 3 3 3 3 3 3 2
21 25 26 25 23 21 19 21 23 25 24 20 16 15 17 20 21 22 20 19 20 23 26 25 21 19 19 18 15 11 9 8 7 5 4 3 3 3 3 3 4 4 4
20 21 20 20 21 20 18 18 19 20 20 18 16 16 19 22 23 24 23 23 26 29 27 23 20 18 17 17 14 12 10 7 6 6 6 5 5 4 4 4 5 6 6
17 17 17 17 18 18 17 15 14 14 14 13 13 14 16 19 21 23 23 24 27 30 26 20 17 15 14 14 14 14 12 8 7 9 12 11 9 8 8 7 7 7 7
19 19 20 22 21 20 18 15 13 12 12 11 11 13 14 16 18 21 23 24 25 26 23 18 15 12 10 11 15 16 13 10 11 15 18 17 16 17 16 13 10 7 5
25 25 29 33 31 26 23 20 18 17 16 15 15 16 17 18 19 21 23 23 23 23 22 20 17 15 12 12 16 18 16 14 17 21 22 20 19 21 20 17 13 8 5
30 33 38 42 39 31 27 25 23 22 22 22 21 21 22 22 21 20 21 22 22 23 24 23 22 19 15 12 15 19 20 21 24 26 25 20 15 15 14 13 11 9 7
35 41 48 51 46 36 31 30 28 26 26 26 24 23 23 22 20 19 20 23 25 27 29 29 26 23 15 8 9 16 24 29 32 34 31 20 11 8 7 5 4 5 5
44 51 56 56 51 42 37 35 32 28 27 26 25 23 23 22 22 22 24 28 31 32 33 33 32 27 17 7 3 8 20 31 37 39 36 26 14 10 9 7 3 2 2
55 57 58 56 51 47 43 39 32 28 26 27 26 25 25 25 26 28 31 33 34 34 34 34 34 29 19 7 1 2 11 22 30 34 35 31 22 15 12 9 5 3 2
60 59 57 55 53 49 46 40 33 27 26 28 28 27 28 28 28 30 33 35 36 35 33 31 31 27 18 7 1 1 6 12 18 21 23 23 18 11 6 5 4 3 2
58 57 57 58 57 53 49 44 36 29 28 29 29 29 30 30 29 30 33 35 36 34 30 27 26 24 16 6 1 1 3 7 11 13 12 10 6 3 1 0 1 1 1
54 55 57 60 60 57 53 47 39 31 29 30 30 30 30 29 29 30 31 32 31 28 25 23 22 20 14 6 1 0 1 4 7 8 8 5 1 0 0 0 0 0 1
49 50 53 56 56 55 52 47 39 33 32 32 31 30 28 26 26 27 26 25 24 21 18 17 16 15 11 5 0 0 0 1 3 5 5 3 1 0 0 0 0 0 0
39 41 43 45 47 48 45 39 35 33 33 33 31 29 26 23 22 23 21 18 16 14 12 11 10 10 8 4 1 0 0 0 1 1 1 1 0 0 0 0 0 0 0
26 29 31 31 32 33 32 30 28 28 28 28 28 25 21 19 17 15 13 10 8 8 9 9 8 7 5 3 1 0 0 0 0 0 0 0 0 0 0 0 0 0 0
19 20 19 18 18 18 18 19 19 19 20 21 20 17 15 13 10 7 5 4 3 3 5 5 5 4 3 1 0 0 0 0 0 0 0 0 0 0 0 0 0 0 0
16 15 13 11 10 10 11 13 14 15 16 16 14 12 10 9 7 4 2 2 1 1 1 2 1 1 1 0 0 0 0 0 0 0 0 0 0 0 0 0 0 0 0
Wind_Speed
10 10 10 10 10 10 9 9 9 9 8 6 6 5 5 4 4 5 6 6 6 6 4 3 4 2 2 3 4 3 2 1 1 1 1 2 3 3 2 2 1 2 4
10 11 10 9 10 10 10 9 9 9 9 7 6 5 5 4 5 4 6 6 6 6 6 4 4 3 3 3 3 2 1 2 2 1 1 1 2 2 4 3 3 3 3
12 12 11 10 10 10 10 9 9 9 9 9 6 6 4 4 4 6 5 5 6 5 3 6 4 4 4 4 4 4 3 1 1 2 1 0 1 2 1 3 3 3 2
12 12 12 11 11 10 9 8 8 8 8 9 8 10 7 6 6 5 5 5 6 6 5 6 5 4 3 5 5 5 3 2 2 2 1 0 1 0 1 1 2 4 4
11 12 12 11 10 10 9 8 8 7 7 8 9 9 7 6 5 5 7 6 5 6 6 5 5 4 3 4 3 3 2 2 2 1 2 2 2 3 2 2 2 2 3
11 11 11 10 9 9 9 9 8 8 8 8 8 8 8 7 7 7 7 6 5 5 6 6 5 5 4 4 3 3 4 1 1 1 1 1 2 2 2 2 3 3 3
11 11 11 11 10 9 9 9 9 9 9 10 9 9 8 8 8 7 7 7 5 5 7 7 5 5 4 4 4 4 3 3 2 2 2 2 2 1 0 0 1 1 2
11 11 11 10 10 9 9 9 9 9 9 9 9 8 8 6 6 7 6 7 6 6 7 7 6 6 6 6 5 4 4 4 3 4 2 2 2 1 1 0 0 1 2
12 12 12 11 10 10 8 8 8 8 8 9 9 8 8 7 7 7 6 6 5 6 9 8 7 7 6 5 5 4 4 4 4 4 4 3 2 2 1 1 1 1 2
11 12 11 11 10 9 8 8 7 7 7 8 8 8 8 7 7 6 7 6 6 6 9 8 8 7 6 6 5 4 4 4 4 3 3 3 3 2 2 2 1 1 1
10 10 10 10 10 10 9 7 7 7 7 7 7 7 7 7 7 6 6 6 6 6 7 7 7 7 7 7 6 6 6 6 5 5 4 4 4 2 2 2 2 2 1
9 10 11 10 10 10 9 8 8 8 7 7 7 7 6 6 6 7 7 6 6 6 7 7 7 7 8 8 7 7 7 7 6 6 5 5 5 4 3 3 2 2 1
10 10 10 9 9 8 8 8 8 8 8 8 8 7 7 7 7 7 7 7 7 6 7 7 7 7 7 7 7 7 6 6 6 6 6 5 5 5 4 4 3 2 2
8 9 9 8 8 7 7 7 7 7 7 7 7 7 7 7 7 6 6 6 6 6 6 6 6 6 5 6 6 6 6 5 5 5 5 5 6 6 5 5 4 4 3
9 9 9 8 8 7 7 7 7 6 6 6 6 6 6 6 6 6 5 5 5 7 6 5 5 5 5 5 6 6 7 5 5 4 4 5 5 5 5 5 3 4 4
8 9 9 9 8 7 7 7 6 6 6 6 6 5 5 6 6 6 6 6 5 4 5 5 4 5 5 6 7 6 5 4 5 4 4 4 5 5 6 6 5 4 5
5 8 8 8 8 8 7 7 7 6 6 5 5 5 5 5 4 5 5 5 5 4 4 4 3 3 2 3 5 5 3 3 4 4 4 5 5 6 5 6 8 8 8
3 5 7 8 8 8 8 7 7 7 6 6 5 5 5 5 4 4 4 4 3 3 3 3 3 2 1 3 4 4 3 2 3 3 3 4 3 3 3 4 5 6 7
5 4 4 7 8 8 8 7 7 7 6 6 5 5 5 5 4 4 3 4 4 4 4 3 3 2 1 2 3 3 3 2 3 2 3 2 2 3 3 3 4 5 4
6 5 5 6 6 7 8 8 7 6 6 5 5 5 4 4 4 3 3 3 3 3 3 2 2 2 2 3 3 3 1 2 2 2 2 1 2 3 2 3 5 6 5
7 7 7 7 6 6 7 8 7 6 5 6 6 5 5 5 4 4 3 3 3 4 3 3 3 3 2 4 4 3 1 1 2 1 1 1 0 1 2 3 4 5 4
8 8 9 9 8 7 8 9 8 6 6 7 7 6 5 4 5 5 3 3 3 3 3 3 2 2 3 4 3 2 1 2 2 2 2 2 2 2 3 3 4 4 4
9 8 10 10 10 10 10 10 8 7 8 8 8 7 7 5 5 4 3 3 3 2 2 2 2 2 2 3 4 2 0 1 1 2 2 3 4 4 4 5 5 4 3
9 9 11 12 11 10 10 9 8 7 8 8 7 6 6 7 6 5 5 4 4 3 3 3 3 3 4 4 3 2 1 0 1 1 3 5 6 5 4 4 4 4 4
10 11 12 12 12 10 10 9 8 8 8 7 6 6 7 6 6 6 6 6 6 4 3 4 4 4 4 3 3 2 2 2 2 2 3 3 3 2 3 3 3 3 3
10 11 12 12 12 11 11 10 8 8 7 6 5 4 4 4 5 5 6 10 8 8 9 8 6 5 4 3 3 3 2 2 3 3 3 3 3 2 2 2 3 3 3
Wind_Direction
164 156 158 159 159 157 160 164 166 160 160 164 169 176 176 172 166 161 164 172 174 172 190 160 160 183 155 140 137 131 154 217 218 230 188 211 202 179 177 187 158 178 167
163 158 158 159 162 162 165 170 171 169 171 171 173 175 175 174 172 160 164 175 173 174 187 153 171 166 139 139 137 136 176 223 187 221 215 203 189 208 192 171 183 186 163
166 164 164 166 167 169 175 179 177 176 179 172 168 168 167 179 167 160 167 175 173 183 183 158 172 155 165 155 166 171 197 232 187 212 251 236 160 183 179 196 176 162 171
166 167 167 169 171 172 174 173 177 178 179 174 175 175 176 182 175 167 164 171 176 181 185 168 165 168 173 152 182 176 191 206 227 188 198 197 116 142 146 235 189 177 180
161 161 165 167 169 170 171 172 172 176 177 178 180 180 181 182 172 166 158 169 178 186 186 173 165 170 180 162 166 142 185 203 238 230 193 187 185 219 185 206 200 195 183
149 153 154 156 163 169 172 174 174 177 179 182 185 188 186 181 175 170 163 171 173 182 186 177 168 177 179 161 154 162 190 223 270 317 302 195 203 217 208 196 202 198 190
149 153 155 159 165 173 174 175 174 180 182 185 189 193 189 186 183 176 171 173 178 181 185 179 172 180 168 166 171 183 200 197 205 252 282 295 277 249 272 161 220 197 178
153 157 159 162 167 171 173 174 177 181 183 185 186 189 188 188 187 187 179 179 187 183 175 171 176 177 177 184 178 189 195 186 198 228 243 299 305 314 286 253 292 257 226
156 158 158 163 165 167 169 170 173 177 182 184 180 183 186 188 187 183 187 187 191 182 170 172 176 182 185 184 174 205 199 169 191 217 215 238 267 272 293 292 264 237 262
158 158 159 162 161 161 162 165 168 174 177 178 179 179 184 185 181 185 191 190 195 181 163 173 179 183 183 184 188 202 193 185 199 216 211 210 246 232 227 246 254 250 259
155 149 153 155 155 158 159 161 164 168 173 176 176 174 181 184 181 187 192 193 191 175 173 178 181 184 186 187 193 211 189 194 203 216 209 207 250 283 276 236 233 240 242
142 146 148 150 156 159 161 164 167 168 171 174 174 176 176 180 186 193 192 187 186 183 183 184 187 194 192 188 192 212 201 195 202 213 215 208 219 222 268 291 269 243 217
144 144 143 146 152 156 158 162 170 169 173 175 176 179 182 185 190 195 189 183 182 187 188 190 194 202 198 190 194 205 210 204 207 209 212 215 222 218 220 233 262 269 255
144 144 143 147 150 150 151 156 163 166 172 173 176 179 184 186 185 186 181 179 180 187 193 196 198 201 203 195 198 203 211 214 216 214 212 214 218 216 220 227 231 251 271
150 147 151 150 150 149 152 156 158 161 165 165 170 174 176 176 173 175 173 172 180 191 191 195 194 194 200 207 204 204 209 212 221 226 221 224 219 214 214 231 224 232 239
154 151 151 149 150 153 158 155 156 156 153 152 159 159 158 167 172 173 170 171 179 189 186 188 190 198 214 213 200 201 215 203 214 227 229 229 217 218 217 228 236 238 244
138 144 146 147 150 156 156 152 153 153 149 145 148 149 154 155 162 173 166 171 174 179 182 179 184 195 230 194 177 195 221 225 221 225 227 243 241 217 218 226 236 246 250
81 124 145 150 153 153 153 150 152 148 144 146 144 147 151 151 153 157 160 165 167 175 175 179 178 177 194 171 175 192 212 238 244 239 231 231 259 271 245 242 240 240 241
60 75 111 139 145 149 147 143 144 143 142 142 138 141 145 145 149 154 159 161 162 164 171 174 175 177 175 154 166 174 194 223 243 262 273 256 244 272 271 261 264 262 255
49 63 74 94 118 132 135 134 134 130 133 134 131 130 130 132 137 140 138 132 137 146 146 135 133 132 117 114 129 169 215 230 245 238 255 292 284 291 281 264 263 263 265
55 62 68 74 80 101 114 117 113 112 111 108 107 104 104 114 114 109 108 110 119 123 126 113 103 101 96 116 124 145 245 283 289 294 306 20 18 268 267 265 261 260 269
63 65 69 66 63 75 93 94 90 96 98 98 96 91 87 91 99 95 101 111 116 118 117 106 93 94 93 85 118 138 233 322 327 331 358 31 356 303 282 264 261 275 286
66 66 76 72 64 62 77 85 80 83 89 91 90 90 86 75 76 89 94 95 96 103 110 115 109 91 91 85 87 106 251 330 338 343 346 311 288 278 271 248 253 259 256
68 69 75 73 66 61 63 69 72 76 79 80 81 85 86 75 61 58 62 63 61 62 63 71 78 85 80 55 43 41 60 44 305 305 297 275 269 260 260 261 242 235 246
71 72 73 74 70 65 61 59 60 67 74 77 77 79 83 85 77 68 54 63 56 56 60 56 56 51 57 41 32 17 8 359 7 321 278 269 257 244 241 248 250 244 242
78 77 75 74 71 67 61 54 54 60 65 68 65 72 83 90 96 96 80 56 70 72 73 76 83 81 88 94 57 33 354 330 339 317 284 282 279 281 284 279 271 258 256